Regional Weather Roundup
Issued by NWS

Home | Current Version | Previous Version | Graphics & Text | Print | Product List | Glossary On
Versions: 1 2 3 4 5 6 7 8 9 10 11 12 13 14 15 16 17 18 19 20 21 22 23 24 25 26 27 28 29 30 31 32 33 34 35 36 37 38 39 40 41 42 43 44 45 46 47 48 49 50
000
ASUS45 KBOU 270407
RWRCO

WEATHER ROUNDUP FOR COLORADO
NATIONAL WEATHER SERVICE DENVER/BOULDER CO
900 PM MST MON JAN 26 2015

NOTE: "FAIR" INDICATES FEW OR NO CLOUDS BELOW 12000 FEET WITH NO
SIGNIFICANT WEATHER AND/OR OBSTRUCTIONS TO VISIBILITY.

COZ001>005-013-030-031-270500-
...NORTHWEST COLORADO...

CITY           SKY/WX    TMP DP  RH WIND       PRES   REMARKS
CRAIG          PTCLDY    20  18  92 CALM      30.33F
HAYDEN         PTCLDY    34  21  60 E13       30.33S WCI  25
MEEKER         CLEAR     24  19  81 CALM      30.32S
MOUNT WERNER   NOT AVBL
STEAMBOAT SPGS PTCLDY    28  23  83 CALM      30.35S
WALDEN         CLEAR     25  18  74 SE6       30.38F WCI  18
$$

COZ006>008-011-270500-
...WEST CENTRAL VALLEYS...

CITY           SKY/WX    TMP DP  RH WIND       PRES   REMARKS
GRAND JUNCTION PTCLDY    40  27  59 N10       30.30R
MONTROSE       CLEAR     34  23  64 S6        30.33R WCI  29
EAGLE          CLEAR     28  25  86 CALM      30.41R
RIFLE          CLEAR     31  25  78 CALM      30.31R
DELTA          NOT AVBL
NUCLA          CLEAR     39  25  56 E7        30.37S
$$

COZ017>023-064>068-270500-
...SOUTHWEST COLORADO...

CITY           SKY/WX    TMP DP  RH WIND       PRES   REMARKS
DURANGO        PTCLDY    34  26  72 E3        30.38S
CORTEZ         CLEAR     29  22  75 CALM      30.34R
PAGOSA SPRINGS PTCLDY    38  22  53 NE3       30.44S
TELLURIDE      PTCLDY    38  20  47 CALM      30.45S
WOLF CREEK PAS NOT AVBL
$$

COZ009-010-012-014-032>034-037-058>063-270500-
...CENTRAL COLORADO...

CITY           SKY/WX    TMP DP  RH WIND       PRES   REMARKS
ASPEN          CLEAR     28  19  69 S6        30.38R WCI  22
BUENA VISTA    PTCLDY    31  22  69 CALM      30.42R
COPPER MTN     CLEAR     41   9  26 S20       30.55S
BERTHOUD PASS  FAIR      32  28  86 SE5       30.58F WCI  27
COTTONWOOD PAS PTCLDY    46   9  21 S3        30.47R
GUNNISON       PTCLDY     7   0  72 CALM      30.48R
KREMMLING      CLEAR     18  14  86 CALM      30.45R
LEADVILLE      CLEAR     28  11  48 CALM      30.46R
MONARCH PASS   CLEAR     36   9  32 S16       30.66F
SALIDA         PTCLDY    38  20  47 W7        30.46R
SUNLIGHT       CLEAR     37  18  44 SE3       30.51S
WILKERSON PASS CLEAR     36  12  38 SW5       30.55S
$$

COZ069>075-270500-
...SAN LUIS VALLEY/SANGRE DE CRISTO MOUNTAINS...

CITY           SKY/WX    TMP DP  RH WIND       PRES   REMARKS
ALAMOSA        PTCLDY    23  18  81 VRB7      30.42R WCI  15
LA VETA PASS   NOT AVBL
SAGUACHE       PTCLDY    27  21  80 N10       30.43S WCI  17
$$

COZ035-036-038>040-270500-
...NORTHERN COLORADO FRONT RANGE...

CITY           SKY/WX    TMP DP  RH WIND       PRES   REMARKS
DENVER INTL AP CLEAR     42  26  53 S13       30.21F
DMNS CITY PARK   N/A     49  22  33 S7        30.21S
AURORA         CLEAR     47  24  41 S9        30.23S
FRONT RANGE AP NOT AVBL
ERIE MUNI ARPT CLEAR     37  25  61 SW3       30.20F
BOULDER MUN AP CLEAR     52  23  32 SW5       30.20S
CENTENNIAL     CLEAR     46  27  47 SE8       30.24S
BROOMFIELD     CLEAR     48  21  34 SW6       30.23S
FORT COLLINS   CLEAR     48  23  37 CALM      30.20F
LONGMONT       CLEAR     43  24  47 SW5       30.22S
$$

COZ041-046-047-076>085-087-088-270500-
...PIKES PEAK/PALMER DIVIDE AND SOUTHERN FOOTHILLS...

CITY           SKY/WX    TMP DP  RH WIND       PRES   REMARKS
COLO. SPRINGS  CLEAR     38  26  62 N6        30.30S
A. F. ACADEMY  CLEAR     33  25  73 N13       30.30F WCI  23
ELLICOTT       CLEAR    N/A N/A N/A CALM      30.28S
FALCON         CLEAR     38  24  57 W7        30.32S
FORT CARSON    CLEAR     43  25  49 NW9       30.27S
LIMON          CLEAR     28  24  85 N6        30.24S WCI  22
MONUMENT HILL  CLEAR     36  27  69 SW10      30.30S
TRINIDAD       CLEAR     44  27  51 SW15      30.29S
$$

COZ042>045-048>051-090-091-270500-
...NORTHEAST COLORADO...

CITY           SKY/WX    TMP DP  RH WIND       PRES   REMARKS
GREELEY ARPT   PTCLDY    37  25  60 CALM      30.17F
AKRON          PTCLDY    50  27  40 SW13      30.18R
BURLINGTON     CLEAR     40  30  67 W12       30.18S
WRAY           CLEAR     40  31  71 MISG      30.14S
STERLING       PTCLDY    37  32  81 SW3       30.15S
HOLYOKE        CLEAR     37  30  75 W7        30.13S
FORT MORGAN    PTCLDY    45  26  46 W6        30.18F
$$

COZ086-089-092>099-270500-
...SOUTHEAST COLORADO...

CITY           SKY/WX    TMP DP  RH WIND       PRES   REMARKS
PUEBLO         CLEAR     42  30  62 W5        30.23S
LA JUNTA       CLEAR     47  33  58 W8        30.20S
LAMAR          CLEAR     38  32  79 W9        30.18R
SPRINGFIELD      N/A     41  30  65 W7        30.23S
$$



USA.gov is the U.S. government's official web portal to all federal, state and local government web resources and services.